Tiempo atmosférico en la estación meteorológica de San Bartolome Tirajana, Las Tirajanas, Las Palmas (960 m.)



Fecha
DESCASC
Temp. máxima en grados centígrados (hora)
DESCASC
Temp. mínima en grados centígrados (hora)
DESCASC
Temp. media en grados centígrados
DESCASC
Racha de viento máxima en m/sg (hora)
DESCASC
Velocidad máxima media en intervalos de 10 minutos(hora)
DESCASC
Precipitaciones diarias en mm
DESCASC
Precipitaciones de 00:00 a 06:00 en mm
DESCASC
Precipitaciones de 06:00 a 12:00 en mm
DESCASC
Precipitaciones de 12:00 a 18:00 en mm
DESCASC
Precipitaciones de 18:00 a 24:00 en mm
DESCASC
04-03-2021 20.2 (13:40) 10.7 (07:30) 15.5 5.83 (13:20) 2.22 (00:10) 0 0 0 0 0
03-03-2021 20.3 (13:30) 7.4 (05:00) 13.8 5 (14:00) 1.94 (11:40) 0 0 0 0 0
02-03-2021 19.3 (14:40) 7.3 (06:10) 13.3 5.83 (01:10) 3.33 (01:10) 0 0 0 0 0
01-03-2021 17.6 (14:30) 9.1 (08:00) 13.4 8.89 (02:10) 3.89 (05:10) 0 0 0 0 0
28-02-2021 15.4 (15:10) 7.2 (00:00) 11.3 9.17 (19:00) 3.61 (19:00) 0.6 0.4 0.2 0 0
27-02-2021 14.6 (13:40) 6.4 (00:00) 10.5 17.22 (00:20) 8.61 (00:20) 0 0 0 0 0
26-02-2021 12.2 (11:40) 8.4 (00:00) 10.3 19.17 (22:10) 10 (05:30) 0 0 0 0 0
25-02-2021 21.3 (13:10) 9.4 (00:00) 15.3 11.67 (15:20) 5.56 (15:20) 0 0 0 0 0
24-02-2021 21.4 (14:30) 10.1 (00:00) 15.8 5.56 (14:30) 2.22 (00:40) 0 0 0 0 0
23-02-2021 20.2 (13:10) 10.7 (00:00) 15.5 5.83 (12:20) 2.5 (19:40) 0 0 0 0 0
22-02-2021 16.3 (12:10) 7.6 (00:00) 11.9 4.72 (11:50) 2.22 (23:40) 0 0 0 0 0
21-02-2021 16.8 (11:50) 9.3 (00:00) 13 8.89 (03:50) 4.17 (03:50) 0 0 0 0 0
20-02-2021 19.3 (14:00) 12.4 (00:00) 15.8 19.17 (19:40) 10.56 (16:00) 4 0 0 0 4
19-02-2021 20.5 (14:30) 9.3 (00:00) 14.9 5.56 (23:10) 3.33 (23:10) 0 0 0 0 0
18-02-2021 19.3 (13:20) 9.4 (00:00) 14.3 4.72 (14:00) 2.22 (04:10) 0 0 0 0 0
17-02-2021 17.2 (14:40) 8.3 (00:00) 12.8 13.33 (00:40) 5.28 (02:20) 0 0 0 0 0
16-02-2021 16.9 (13:50) 10.6 (00:00) 13.8 12.22 (23:59) 4.72 (22:00) 0 0 0 0 0
15-02-2021 20.9 (15:20) 13.8 (00:00) 17.3 9.44 (22:20) 3.61 (22:10) 0 0 0 0 0
14-02-2021 23.3 (13:10) 13.6 (00:00) 18.4 4.72 (13:20) 2.5 (22:40) 0 0 0 0 0
13-02-2021 21.8 (14:50) 9.2 (00:00) 15.5 5 (12:50) 2.5 (06:50) 0 0 0 0 0
12-02-2021 19.5 (13:20) 7.4 (00:00) 13.5 5.83 (14:00) 2.22 (14:20) 0 0 0 0 0
11-02-2021 17.9 (12:40) 7.1 (00:00) 12.5 4.72 (11:20) 2.22 (08:00) 0 0 0 0 0
10-02-2021 18.2 (13:30) 7.9 (00:00) 13.1 5 (13:10) 1.67 (02:40) 0 0 0 0 0
09-02-2021 17.1 (12:30) 7.2 (00:00) 12.2 5 (15:40) 1.94 (00:30) 0 0 0 0 0
08-02-2021 17.3 (13:20) 6.8 (00:00) 12 5 (13:00) 2.22 (14:00) 0 0 0 0 0
07-02-2021 16 (12:10) 6.6 (00:00) 11.3 5 (14:20) 2.5 (14:20) 0 0 0 0 0
06-02-2021 12.5 (14:20) 6.4 (00:00) 9.5 20.83 (02:10) 7.78 (02:30) 2.4 1.4 0.8 0.2 0
05-02-2021 11.1 (16:40) 5.6 (00:00) 8.4 13.33 (13:50) 6.11 (19:30) 4.8 0.6 2 0.8 1.4
04-02-2021 14.1 (14:20) 7.4 (00:00) 10.8 10 (18:10) 5.28 (18:00) 3.4 0 1.6 0.6 1.2

Gráficas

Temp. máximas Temp. mínimas Temp. medias Precipitaciones Rachas de viento máximas Velocidades máximas media en intervalos de 10 minutos

Datos horarios

Fecha y hora oficial Temperatura (ºC) Velocidad del viento (km/h) Dirección del viento Racha (km/h) Dirección de racha Precipitación (mm) Presión (hPa) Tendencia (hPa) Humedad (%)
2021-03-05 23:00:00 11.4 4 Sudeste 17 Norte 0 -- -- 82
2021-03-05 22:00:00 11.5 5 Nordeste 50 Nordeste 0 -- -- 74
2021-03-05 21:00:00 11.3 10 Nordeste 54 Noroeste 0 -- -- 51
2021-03-05 20:00:00 11.9 16 Oeste 50 Noroeste 0 -- -- 64
2021-03-05 19:00:00 13.3 9 Norte 37 Oeste 0 -- -- 71
2021-03-05 18:00:00 14.2 12 Oeste 53 Noroeste 0 -- -- 63
2021-03-05 17:00:00 15.6 24 Noroeste 57 Noroeste 0 -- -- 62
2021-03-05 16:00:00 17.1 9 Este 35 Sudeste 0 -- -- 74
2021-03-05 15:00:00 18.3 5 Sudeste 20 Sudeste 0 -- -- 66
2021-03-05 14:00:00 19.3 5 Sur 25 Noroeste 0 -- -- 62
2021-03-05 13:00:00 18.7 5 Oeste 23 Oeste 0 -- -- 60
2021-03-05 12:00:00 18.7 5 Norte 16 Este 0 -- -- 57
2021-03-05 11:00:00 17.8 8 Este 17 Este 0 -- -- 63
2021-03-05 10:00:00 16.4 5 Este 11 Nordeste 0 -- -- 65
2021-03-05 09:00:00 13.8 2 Nordeste 9 Este 0 -- -- 72
2021-03-05 08:00:00 9.8 3 Noroeste 8 Este 0 -- -- 82
2021-03-05 07:00:00 10 3 Sudoeste 10 Norte 0 -- -- 80
2021-03-05 06:00:00 10.2 2 Noroeste 11 Noroeste 0 -- -- 77
2021-03-05 05:00:00 10.2 3 Noroeste 8 Sudeste 0 -- -- 79
2021-03-05 04:00:00 11.1 5 Sur 14 Sur 0 -- -- 75
2021-03-05 03:00:00 10.6 6 Noroeste 10 Noroeste 0 -- -- 73
2021-03-05 02:00:00 10.6 0 Calma 8 Oeste 0 -- -- 76
2021-03-05 01:00:00 10.9 2 Nordeste 9 Noroeste 0 -- -- 74
2021-03-05 00:00:00 11.1 3 Noroeste 9 Sudoeste 0 -- -- 75
2021-03-04 23:00:00 11.3 0 Calma 10 Oeste 0 -- -- 77
2021-03-04 22:00:00 10.7 7 Oeste 10 Sudoeste 0 -- -- 83
2021-03-04 21:00:00 11.3 0 Calma 8 Oeste 0 -- -- 84
2021-03-04 20:00:00 12.1 0 Calma 6 Oeste 0 -- -- 83
2021-03-04 19:00:00 13.5 2 Sudeste 7 Sudeste 0 -- -- 77
2021-03-04 18:00:00 15.5 3 Este 10 Sudeste 0 -- -- 70
2021-03-04 17:00:00 16 3 Sudeste 13 Sudoeste 0 -- -- 70
2021-03-04 16:00:00 17 5 Sudeste 14 Sur 0 -- -- 66
2021-03-04 15:00:00 19.7 4 Sur 18 Sudeste 0 -- -- 57
2021-03-04 14:00:00 19.3 6 Sudeste 21 Este 0 -- -- 57
2021-03-04 13:00:00 19.8 3 Este 17 Este 0 -- -- 53
2021-03-04 12:00:00 19.1 5 Sudeste 14 Este 0 -- -- 52
2021-03-04 11:00:00 18.2 6 Este 12 Este 0 -- -- 50
2021-03-04 10:00:00 16.9 3 Nordeste 9 Este 0 -- -- 51
2021-03-04 09:00:00 13.7 0 Calma 8 Sudeste 0 -- -- 40
2021-03-04 08:00:00 11.5 6 Noroeste 11 Noroeste 0 -- -- 22
2021-03-04 07:00:00 11.5 5 Oeste 7 Oeste 0 -- -- 19
2021-03-04 06:00:00 12.3 4 Sudoeste 11 Oeste 0 -- -- 18
2021-03-04 05:00:00 11.4 4 Noroeste 8 Sudoeste 0 -- -- 21
2021-03-04 04:00:00 12.3 4 Sudoeste 7 Noroeste 0 -- -- 19
2021-03-04 03:00:00 12.4 5 Oeste 8 Oeste 0 -- -- 21
2021-03-04 02:00:00 12.5 6 Oeste 9 Sudoeste 0 -- -- 19
2021-03-04 01:00:00 12 5 Oeste 9 Sudoeste 0 -- -- 24
2021-03-04 00:00:00 12.8 5 Sudoeste 8 Sudoeste 0 -- -- 20
2021-03-03 23:00:00 12.5 3 Sudoeste 8 Sudoeste 0 -- -- 26
2021-03-03 22:00:00 11.3 4 Sudoeste 6 Sudoeste 0 -- -- 38
2021-03-03 21:00:00 10.9 4 Este 9 Oeste 0 -- -- 84
2021-03-03 20:00:00 12.1 3 Este 5 Este 0 -- -- 86
2021-03-03 19:00:00 13.6 2 Sudeste 5 Sudeste 0 -- -- 80
2021-03-03 18:00:00 16 3 Sudoeste 9 Sudeste 0 -- -- 73
2021-03-03 17:00:00 17.5 4 Sudeste 15 Este 0 -- -- 67
2021-03-03 16:00:00 19 3 Este 14 Este 0 -- -- 64
2021-03-03 15:00:00 19.7 5 Este 15 Este 0 -- -- 59
2021-03-03 14:00:00 19.6 5 Este 18 Este 0 -- -- 57
2021-03-03 13:00:00 19.2 6 Este 14 Nordeste 0 -- -- 56
2021-03-03 12:00:00 17.9 6 Este 15 Este 0 -- -- 57
2021-03-03 11:00:00 16.6 4 Este 12 Este 0 -- -- 62
2021-03-03 10:00:00 14.9 5 Este 14 Este 0 -- -- 69
2021-03-03 09:00:00 12.3 5 Este 10 Este 0 -- -- 73
2021-03-03 08:00:00 8.8 5 Sur 9 Sur 0 -- -- 78
2021-03-03 07:00:00 8 2 Noroeste 8 Oeste 0 -- -- 60
2021-03-03 06:00:00 8.1 2 Este 6 Oeste 0 -- -- 65
2021-03-03 05:00:00 7.4 5 Oeste 8 Oeste 0 -- -- 73
2021-03-03 04:00:00 8.2 2 Oeste 10 Sudoeste 0 -- -- 71
2021-03-03 03:00:00 8 6 Noroeste 9 Noroeste 0 -- -- 77
2021-03-03 02:00:00 8.4 3 Norte 6 Oeste 0 -- -- 84
2021-03-03 01:00:00 8.7 0 Calma 6 Oeste 0 -- -- 85
2021-03-03 00:00:00 9 3 Sur 9 Oeste 0 -- -- 93
2021-03-02 23:00:00 9.4 4 Sudoeste 5 Sudoeste 0 -- -- 93
2021-03-02 22:00:00 10 3 Oeste 5 Oeste 0 -- -- 90
2021-03-02 21:00:00 11 0 Calma 6 Sur 0 -- -- 88
2021-03-02 20:00:00 11.5 3 Sudeste 6 Sur 0 -- -- 89
2021-03-02 19:00:00 12.3 0 Calma 8 Sur 0 -- -- 84
2021-03-02 18:00:00 13.6 3 Sudeste 14 Sur 0 -- -- 78
2021-03-02 17:00:00 15.3 7 Sur 17 Sudeste 0 -- -- 69
2021-03-02 16:00:00 17.5 8 Sudeste 18 Sudeste 0 -- -- 63
2021-03-02 15:00:00 18.8 4 Este 16 Este 0 -- -- 60
2021-03-02 14:00:00 18.9 5 Este 19 Este 0 -- -- 57
2021-03-02 13:00:00 18.7 5 Este 17 Este 0 -- -- 56
2021-03-02 12:00:00 16.2 5 Sur 20 Sudeste 0 -- -- 61
2021-03-02 11:00:00 16.2 5 Este 20 Sudeste 0 -- -- 58
2021-03-02 10:00:00 14.5 3 Este 11 Este 0 -- -- 60
2021-03-02 09:00:00 11.5 3 Este 13 Sudoeste 0 -- -- 75
2021-03-02 08:00:00 8.7 10 Sudoeste 15 Sudoeste 0 -- -- 78
2021-03-02 07:00:00 7.6 4 Oeste 6 Oeste 0 -- -- 81
2021-03-02 06:00:00 7.6 3 Oeste 6 Sudoeste 0 -- -- 80
2021-03-02 05:00:00 8.2 4 Sudoeste 7 Oeste 0 -- -- 78
2021-03-02 04:00:00 8.2 4 Oeste 8 Sudoeste 0 -- -- 79
2021-03-02 03:00:00 8.4 5 Oeste 15 Sudoeste 0 -- -- 79
2021-03-02 02:00:00 9 9 Sudoeste 21 Sudoeste 0 -- -- 78
2021-03-02 01:00:00 9.4 10 Sudoeste 20 Sudoeste 0 -- -- 77
2021-03-02 00:00:00 9.7 10 Sudoeste 13 Sudoeste 0 -- -- 81
2021-03-01 23:00:00 9.3 6 Sudoeste 12 Sudoeste 0 -- -- 82
2021-03-01 22:00:00 9.8 6 Sur 14 Sudoeste 0 -- -- 87
2021-03-01 21:00:00 10.5 4 Oeste 9 Sudeste 0 -- -- 82
2021-03-01 20:00:00 11.3 3 Este 8 Nordeste 0 -- -- 77
2021-03-01 19:00:00 11.6 2 Sudeste 9 Este 0 -- -- 80
2021-03-01 18:00:00 12.9 3 Este 10 Sur 0 -- -- 78
2021-03-01 17:00:00 13.3 3 Sudeste 10 Sudeste 0 -- -- 75
2021-03-01 16:00:00 14.5 3 Sudeste 18 Este 0 -- -- 68
2021-03-01 15:00:00 15.9 4 Sur 18 Sudeste 0 -- -- 61
2021-03-01 14:00:00 17.1 5 Este 21 Sudeste 0 -- -- 59
2021-03-01 13:00:00 16.2 7 Sudeste 27 Noroeste 0 -- -- 61
2021-03-01 12:00:00 15.5 9 Oeste 21 Este 0 -- -- 48
2021-03-01 11:00:00 13.9 9 Oeste 23 Noroeste 0 -- -- 54
2021-03-01 10:00:00 11.7 5 Noroeste 19 Oeste 0 -- -- 69
2021-03-01 09:00:00 12.4 3 Sur 14 Nordeste 0 -- -- 64
2021-03-01 08:00:00 9.1 3 Sudoeste 14 Este 0 -- -- 85
2021-03-01 07:00:00 10.1 5 Nordeste 20 Noroeste 0 -- -- 76
2021-03-01 06:00:00 10 3 Sudeste 31 Este 0 -- -- 74
2021-03-01 05:00:00 10.2 7 Este 30 Nordeste 0 -- -- 68
2021-03-01 04:00:00 9.8 7 Este 17 Oeste 0 -- -- 74
2021-03-01 03:00:00 9.8 10 Noroeste 32 Nordeste 0 -- -- 71
2021-03-01 02:00:00 9.8 7 Noroeste 30 Norte 0 -- -- 65
2021-03-01 01:00:00 9.7 9 Nordeste 29 Noroeste 0 -- -- 66
2021-03-01 00:00:00 9.3 5 Oeste 18 Oeste 0 -- -- 75
2021-02-28 23:00:00 9.7 10 Norte 25 Noroeste 0 -- -- 77
2021-02-28 22:00:00 10.2 6 Sur 27 Noroeste 0 -- -- 85
2021-02-28 21:00:00 10.4 4 Sudoeste 13 Noroeste 0 -- -- 78
2021-02-28 20:00:00 10.5 4 Sudoeste 27 Norte 0 -- -- 71
2021-02-28 19:00:00 11.2 13 Norte 33 Norte 0 -- -- 63
2021-02-28 18:00:00 12.1 5 Sudoeste 13 Sur 0 -- -- 80
2021-02-28 17:00:00 13.8 4 Sur 13 Sudoeste 0 -- -- 69
2021-02-28 16:00:00 13.7 10 Sur 26 Norte 0 -- -- 70
2021-02-28 15:00:00 14.8 4 Norte 16 Sudeste 0 -- -- 56
2021-02-28 14:00:00 14.7 4 Sudeste 19 Nordeste 0 -- -- 65
2021-02-28 13:00:00 12.9 4 Sur 19 Sudeste 0 -- -- 71
2021-02-28 12:00:00 13.5 4 Norte 25 Oeste 0 -- -- 66
2021-02-28 11:00:00 12.7 6 Nordeste 18 Noroeste 0 -- -- 63
2021-02-28 10:00:00 9.3 4 Norte 10 Sudoeste 0 -- -- 89
2021-02-28 09:00:00 8.8 4 Sudeste 16 Sur 0.2 -- -- 87
2021-02-28 08:00:00 8.5 3 Sudeste 15 Sur 0 -- -- 82
2021-02-28 07:00:00 7.6 0 Calma 12 Sur 0 -- -- 89
2021-02-28 06:00:00 7.4 6 Noroeste 14 Oeste 0.4 -- -- 91
2021-02-28 05:00:00 7.7 3 Norte 13 Norte 0 -- -- 84
2021-02-28 04:00:00 8 4 Nordeste 11 Sudeste 0 -- -- 81
2021-02-28 03:00:00 7.8 3 Norte 13 Sudoeste 0 -- -- 81
2021-02-28 02:00:00 7.8 6 Oeste 13 Sur 0 -- -- 81
2021-02-28 01:00:00 8 3 Este 9 Norte 0 -- -- 72
2021-02-28 00:00:00 8.1 4 Noroeste 8 Sudeste 0 -- -- 72
2021-02-27 23:00:00 8.7 3 Nordeste 15 Sudoeste 0 -- -- 69
2021-02-27 22:00:00 8.4 3 Sudoeste 27 Este 0 -- -- 57
2021-02-27 21:00:00 8.3 5 Nordeste 33 Este 0 -- -- 61
2021-02-27 20:00:00 8.6 11 Nordeste 27 Nordeste 0 -- -- 61
2021-02-27 19:00:00 9.9 5 Este 16 Este 0 -- -- 65
2021-02-27 18:00:00 11.3 3 Sur 21 Este 0 -- -- 72
2021-02-27 17:00:00 11.3 5 Este 40 Nordeste 0 -- -- 62
2021-02-27 16:00:00 13.1 5 Este 17 Nordeste 0 -- -- 64
2021-02-27 15:00:00 12.7 6 Sudeste 31 Nordeste 0 -- -- 62
2021-02-27 14:00:00 14.1 10 Nordeste 33 Nordeste 0 -- -- 55
2021-02-27 13:00:00 12.7 13 Norte 34 Noroeste 0 -- -- 61
2021-02-27 12:00:00 14.1 6 Este 15 Sur 0 -- -- 56
2021-02-27 11:00:00 13.8 6 Sudeste 16 Sudeste 0 -- -- 54
2021-02-27 10:00:00 12.1 4 Este 21 Este 0 -- -- 58
2021-02-27 09:00:00 10.4 5 Este 12 Este 0 -- -- 62
2021-02-27 08:00:00 6.7 3 Sudoeste 7 Sudoeste 0 -- -- 65
2021-02-27 07:00:00 7 3 Sur 27 Norte 0 -- -- 65
2021-02-27 06:00:00 7.5 17 Norte 43 Norte 0 -- -- 60
2021-02-27 05:00:00 7.6 21 Norte 37 Noroeste 0 -- -- 66
2021-02-27 04:00:00 8.3 15 Norte 38 Nordeste 0 -- -- 66
2021-02-27 03:00:00 9.1 18 Norte 39 Noroeste 0 -- -- 66
2021-02-27 02:00:00 9.6 10 Noroeste 44 Noroeste 0 -- -- 68
2021-02-27 01:00:00 9.3 22 Norte 62 Norte 0 -- -- 65
2021-02-27 00:00:00 9.3 20 Norte 59 Nordeste 0 -- -- 73
2021-02-26 23:00:00 9.5 18 Norte 69 Norte 0 -- -- 72
2021-02-26 22:00:00 9.6 21 Norte 59 Norte 0 -- -- 66
2021-02-26 21:00:00 9.7 21 Noroeste 58 Norte 0 -- -- 70
2021-02-26 20:00:00 9.6 22 Norte 57 Noroeste 0 -- -- 72
2021-02-26 19:00:00 9.8 21 Norte 44 Nordeste 0 -- -- 68
2021-02-26 18:00:00 10.2 12 Norte 47 Nordeste 0 -- -- 68
2021-02-26 17:00:00 10.6 12 Nordeste 46 Norte 0 -- -- 59
2021-02-26 16:00:00 11.2 21 Nordeste 41 Norte 0 -- -- 67
2021-02-26 15:00:00 11.3 14 Nordeste 53 Norte 0 -- -- 63
2021-02-26 14:00:00 11.4 21 Norte 51 Noroeste 0 -- -- 61
2021-02-26 13:00:00 11.8 18 Nordeste 47 Nordeste 0 -- -- 64
2021-02-26 12:00:00 11.8 16 Norte 50 Norte 0 -- -- 61
2021-02-26 11:00:00 11.8 17 Nordeste 66 Nordeste 0 -- -- 57
2021-02-26 10:00:00 10.7 21 Norte 55 Norte 0 -- -- 65
2021-02-26 09:00:00 9.4 22 Norte 58 Noroeste 0 -- -- 65
2021-02-26 08:00:00 9.2 24 Norte 55 Norte 0 -- -- 73
2021-02-26 07:00:00 8.4 31 Norte 68 Norte 0 -- -- 66
2021-02-26 06:00:00 8.9 31 Norte 66 Norte 0 -- -- 71
2021-02-26 05:00:00 8.7 31 Norte 64 Norte 0 -- -- 60
2021-02-26 04:00:00 8.9 31 Norte 66 Norte 0 -- -- 69
2021-02-26 03:00:00 9.1 24 Norte 60 Noroeste 0 -- -- 70
2021-02-26 02:00:00 9.2 31 Norte 67 Norte 0 -- -- 55
2021-02-26 01:00:00 9 22 Norte 46 Noroeste 0 -- -- 47
2021-02-26 00:00:00 9.5 6 Oeste 35 Noroeste 0 -- -- 41
2021-02-25 23:00:00 9.8 16 Norte 38 Noroeste 0 -- -- 51
2021-02-25 22:00:00 10.7 15 Norte 35 Nordeste 0 -- -- 52
2021-02-25 21:00:00 11 11 Norte 40 Nordeste 0 -- -- 52
2021-02-25 20:00:00 11.9 6 Sur 12 Sudeste 0 -- -- 52
2021-02-25 19:00:00 13 4 Nordeste 21 Noroeste 0 -- -- 46
2021-02-25 18:00:00 14.7 6 Noroeste 18 Noroeste 0 -- -- 57
2021-02-25 17:00:00 15 5 Este 31 Norte 0 -- -- 61
2021-02-25 16:00:00 15 12 Nordeste 42 Nordeste 0 -- -- 64
2021-02-25 15:00:00 17 5 Norte 21 Norte 0 -- -- 60
2021-02-25 14:00:00 18.9 5 Sudeste 20 Sudeste 0 -- -- 51
2021-02-25 13:00:00 21.1 5 Este 17 Sudeste 0 -- -- 41
2021-02-25 12:00:00 19.8 5 Este 16 Este 0 -- -- 48
2021-02-25 11:00:00 19.6 5 Este 15 Sudeste 0 -- -- 47
2021-02-25 10:00:00 18.1 4 Este 13 Este 0 -- -- 50
2021-02-25 09:00:00 15 2 Nordeste 10 Este 0 -- -- 51
2021-02-25 08:00:00 12.5 3 Sudoeste 10 Este 0 -- -- 52
2021-02-25 07:00:00 12.3 4 Este 13 Sudoeste 0 -- -- 53
2021-02-25 06:00:00 13.1 5 Nordeste 20 Este 0 -- -- 49
2021-02-25 05:00:00 13.4 3 Norte 9 Sudoeste 0 -- -- 43
2021-02-25 04:00:00 13.5 5 Oeste 9 Noroeste 0 -- -- 40
2021-02-25 03:00:00 13.5 0 Calma 8 Noroeste 0 -- -- 40
2021-02-25 02:00:00 13.5 6 Oeste 8 Oeste 0 -- -- 43
2021-02-25 01:00:00 14 5 Oeste 9 Noroeste 0 -- -- 40
2021-02-25 00:00:00 13.6 4 Noroeste 8 Noroeste 0 -- -- 45
2021-02-24 23:00:00 13 4 Noroeste 9 Oeste 0 -- -- 46
2021-02-24 22:00:00 14.2 5 Sudoeste 8 Sudoeste 0 -- -- 47
2021-02-24 21:00:00 14.2 5 Sur 9 Oeste 0 -- -- 51
2021-02-24 20:00:00 13.6 4 Oeste 6 Oeste 0 -- -- 69
2021-02-24 19:00:00 15.1 4 Noroeste 6 Noroeste 0 -- -- 65
2021-02-24 18:00:00 17.6 4 Sudoeste 11 Sur 0 -- -- 57
2021-02-24 17:00:00 20 5 Sudeste 14 Sudeste 0 -- -- 41
2021-02-24 16:00:00 20.5 6 Sudeste 19 Sudeste 0 -- -- 41
2021-02-24 15:00:00 20.8 7 Sudeste 20 Este 0 -- -- 44
2021-02-24 14:00:00 21.2 5 Este 19 Sudeste 0 -- -- 39
2021-02-24 13:00:00 20.8 8 Sudeste 18 Sudeste 0 -- -- 39
2021-02-24 12:00:00 19.8 5 Este 13 Este 0 -- -- 40
2021-02-24 11:00:00 19 5 Este 14 Sudeste 0 -- -- 40
2021-02-24 10:00:00 17.1 4 Este 9 Este 0 -- -- 40
2021-02-24 09:00:00 14.1 0 Calma 6 Este 0 -- -- 35
2021-02-24 08:00:00 10.8 2 Norte 10 Noroeste 0 -- -- 30
2021-02-24 07:00:00 10.3 4 Oeste 8 Noroeste 0 -- -- 31
2021-02-24 06:00:00 10.8 2 Nordeste 9 Oeste 0 -- -- 31
2021-02-24 05:00:00 10.8 4 Oeste 7 Oeste 0 -- -- 31
2021-02-24 04:00:00 11 2 Sudoeste 7 Noroeste 0 -- -- 32
2021-02-24 03:00:00 10.5 5 Noroeste 9 Noroeste 0 -- -- 36
2021-02-24 02:00:00 11.4 4 Oeste 6 Oeste 0 -- -- 34
2021-02-24 01:00:00 12 3 Oeste 10 Noroeste 0 -- -- 35
2021-02-24 00:00:00 12.4 6 Oeste 9 Oeste 0 -- -- 32
2021-02-23 23:00:00 13 2 Noroeste 10 Oeste 0 -- -- 29
2021-02-23 22:00:00 12.6 4 Sudoeste 8 Noroeste 0 -- -- 35
2021-02-23 21:00:00 13.2 4 Sudoeste 9 Oeste 0 -- -- 33
2021-02-23 20:00:00 12.6 3 Sudoeste 12 Oeste 0 -- -- 82
2021-02-23 19:00:00 13.8 2 Norte 5 Este 0 -- -- 87
2021-02-23 18:00:00 14.8 2 Nordeste 7 Este 0 -- -- 82
2021-02-23 17:00:00 16.1 3 Este 10 Sudeste 0 -- -- 78
2021-02-23 16:00:00 16.8 4 Este 13 Este 0 -- -- 75
2021-02-23 15:00:00 17.9 4 Este 13 Este 0 -- -- 69
2021-02-23 14:00:00 19.5 4 Este 19 Este 0 -- -- 62
2021-02-23 13:00:00 19.9 5 Este 21 Este 0 -- -- 58
2021-02-23 12:00:00 19.2 6 Este 15 Sudeste 0 -- -- 57
2021-02-23 11:00:00 17.5 5 Este 12 Este 0 -- -- 61
2021-02-23 10:00:00 16 5 Este 12 Nordeste 0 -- -- 62
2021-02-23 09:00:00 14.4 2 Este 8 Este 0 -- -- 60
2021-02-23 08:00:00 10.7 4 Oeste 7 Noroeste 0 -- -- 63
2021-02-23 07:00:00 10.7 6 Oeste 10 Noroeste 0 -- -- 64
2021-02-23 06:00:00 11.7 4 Oeste 10 Noroeste 0 -- -- 58
2021-02-23 05:00:00 11.2 8 Noroeste 10 Noroeste 0 -- -- 60
2021-02-23 04:00:00 11.3 4 Oeste 8 Noroeste 0 -- -- 66
2021-02-23 03:00:00 11.1 4 Oeste 8 Oeste 0 -- -- 71
2021-02-23 02:00:00 11.2 6 Oeste 8 Oeste 0 -- -- 70
2021-02-23 01:00:00 11.8 3 Sudoeste 8 Oeste 0 -- -- 69
2021-02-23 00:00:00 12 4 Sudoeste 10 Noroeste 0 -- -- 73
2021-02-22 23:00:00 11.2 4 Sudoeste 10 Noroeste 0 -- -- 81
2021-02-22 22:00:00 10.8 5 Sudoeste 10 Sudoeste 0 -- -- 85
2021-02-22 21:00:00 11.4 5 Sudoeste 11 Noroeste 0 -- -- 88
2021-02-22 20:00:00 11.2 5 Noroeste 9 Noroeste 0 -- -- 91
2021-02-22 19:00:00 12.4 0 Calma 6 Este 0 -- -- 87
2021-02-22 18:00:00 13.8 3 Este 11 Este 0 -- -- 81
2021-02-22 17:00:00 15.6 3 Este 11 Este 0 -- -- 76
2021-02-22 16:00:00 16.2 4 Sudeste 14 Sudeste 0 -- -- 73
2021-02-22 15:00:00 15.7 3 Nordeste 10 Nordeste 0 -- -- 74
2021-02-22 14:00:00 15.3 4 Este 12 Este 0 -- -- 76
2021-02-22 13:00:00 15.8 4 Este 14 Este 0 -- -- 74
2021-02-22 12:00:00 16.2 5 Este 17 Sudeste 0 -- -- 70
2021-02-22 11:00:00 15.4 4 Este 13 Este 0 -- -- 70
2021-02-22 10:00:00 14.4 5 Este 12 Nordeste 0 -- -- 74
2021-02-22 09:00:00 11.2 3 Este 8 Nordeste 0 -- -- 84
2021-02-22 08:00:00 7.9 2 Noroeste 9 Noroeste 0 -- -- 92
2021-02-22 07:00:00 8.1 3 Oeste 11 Noroeste 0 -- -- 93
2021-02-22 06:00:00 8.7 4 Noroeste 9 Noroeste 0 -- -- 93
2021-02-22 05:00:00 8.8 3 Oeste 7 Sudoeste 0 -- -- 93
2021-02-22 04:00:00 8.6 2 Sudoeste 6 Oeste 0 -- -- 93
2021-02-22 03:00:00 8.3 4 Oeste 6 Sudoeste 0 -- -- 92
2021-02-22 02:00:00 8.9 0 Calma 5 Noroeste 0 -- -- 91
2021-02-22 01:00:00 8.9 4 Oeste 5 Oeste 0 -- -- 90
2021-02-22 00:00:00 9.3 4 Oeste 5 Sudoeste 0 -- -- 91
2021-02-21 23:00:00 9.7 3 Noroeste 5 Oeste 0 -- -- 89
2021-02-21 22:00:00 10.4 0 Calma 4 Sudeste 0 -- -- 87
2021-02-21 21:00:00 10.6 0 Calma 6 Sudeste 0 -- -- 85
2021-02-21 20:00:00 11.1 2 Este 8 Norte 0 -- -- 84
2021-02-21 19:00:00 11.6 2 Sur 10 Este 0 -- -- 82
2021-02-21 18:00:00 12.4 4 Este 14 Sur 0 -- -- 81
2021-02-21 17:00:00 13.1 3 Norte 18 Sur 0 -- -- 85
2021-02-21 16:00:00 13.8 4 Sur 21 Sudoeste 0 -- -- 81
2021-02-21 15:00:00 14.1 8 Sur 29 Sur 0 -- -- 78
2021-02-21 14:00:00 15.1 9 Sur 20 Sur 0 -- -- 73
2021-02-21 13:00:00 15.5 9 Sur 17 Sudeste 0 -- -- 73
2021-02-21 12:00:00 16.5 5 Sudeste 19 Sudeste 0 -- -- 63
2021-02-21 11:00:00 15.2 4 Este 11 Sudeste 0 -- -- 74
2021-02-21 10:00:00 14.8 6 Este 13 Este 0 -- -- 71
2021-02-21 09:00:00 11.6 2 Este 11 Noroeste 0 -- -- 72
2021-02-21 08:00:00 9.6 2 Norte 24 Sudoeste 0 -- -- 81
2021-02-21 07:00:00 10.3 13 Oeste 25 Noroeste 0 -- -- 77
2021-02-21 06:00:00 11.1 10 Oeste 24 Oeste 0 -- -- 82
2021-02-21 05:00:00 11.3 13 Oeste 28 Oeste 0 -- -- 82
2021-02-21 04:00:00 11.6 13 Oeste 32 Noroeste 0 -- -- 81
2021-02-21 03:00:00 11.1 9 Oeste 17 Oeste 0 -- -- 86
2021-02-21 02:00:00 11.4 6 Sur 12 Sudeste 0 -- -- 95
2021-02-21 01:00:00 12.5 5 Norte 27 Noroeste 0 -- -- 84
2021-02-21 00:00:00 13.5 8 Norte 44 Noroeste 0 -- -- 81
2021-02-20 23:00:00 14.1 13 Noroeste 41 Sudoeste 1.2 -- -- 85
2021-02-20 22:00:00 13.9 18 Oeste 59 Oeste 0.8 -- -- 89
2021-02-20 21:00:00 13.8 24 Oeste 60 Oeste 0.8 -- -- 89
2021-02-20 20:00:00 13.2 27 Oeste 69 Oeste 1 -- -- 92
2021-02-20 19:00:00 12.8 26 Oeste 66 Oeste 0.2 -- -- 93
2021-02-20 18:00:00 12.6 27 Oeste 67 Oeste 0 -- -- 90
2021-02-20 17:00:00 12.5 37 Oeste 68 Oeste 0 -- -- 88
2021-02-20 16:00:00 13.7 38 Oeste 66 Oeste 0 -- -- 69
2021-02-20 15:00:00 17.5 30 Noroeste 60 Oeste 0 -- -- 36
2021-02-20 14:00:00 19.3 15 Oeste 46 Oeste 0 -- -- 34
2021-02-20 13:00:00 18.3 15 Oeste 40 Oeste 0 -- -- 26
2021-02-20 12:00:00 16.5 6 Oeste 39 Sudoeste 0 -- -- 28
2021-02-20 11:00:00 16.6 21 Sudoeste 40 Sudoeste 0 -- -- 21
2021-02-20 10:00:00 15.4 18 Oeste 44 Oeste 0 -- -- 23
2021-02-20 09:00:00 13.4 26 Oeste 55 Oeste 0 -- -- 26
2021-02-20 08:00:00 12.5 16 Oeste 45 Oeste 0 -- -- 27
2021-02-20 07:00:00 12.6 20 Oeste 48 Oeste 0 -- -- 27
2021-02-20 06:00:00 13.1 17 Oeste 44 Oeste 0 -- -- 26
2021-02-20 05:00:00 13.1 14 Oeste 40 Oeste 0 -- -- 25
2021-02-20 04:00:00 13.2 9 Oeste 27 Oeste 0 -- -- 25
2021-02-20 03:00:00 13.6 13 Noroeste 26 Noroeste 0 -- -- 25
2021-02-20 02:00:00 13.9 6 Sudoeste 23 Sudoeste 0 -- -- 19
2021-02-20 01:00:00 13.3 5 Sudoeste 16 Noroeste 0 -- -- 24
2021-02-20 00:00:00 13.5 3 Sudeste 20 Noroeste 0 -- -- 25
2021-02-19 23:00:00 13.3 5 Oeste 13 Oeste 0 -- -- 22
2021-02-19 22:00:00 12.3 5 Oeste 8 Noroeste 0 -- -- 25
2021-02-19 21:00:00 13.3 3 Sudeste 10 Oeste 0 -- -- 29
2021-02-19 20:00:00 14.1 2 Norte 18 Oeste 0 -- -- 32
2021-02-19 19:00:00 14 3 Noroeste 6 Oeste 0 -- -- 40
2021-02-19 18:00:00 16.4 4 Sudeste 9 Este 0 -- -- 36
2021-02-19 17:00:00 18.4 4 Este 15 Este 0 -- -- 34
2021-02-19 16:00:00 19.5 4 Este 15 Sur 0 -- -- 28
2021-02-19 15:00:00 19.6 7 Este 18 Este 0 -- -- 28
2021-02-19 14:00:00 20.2 5 Este 15 Este 0 -- -- 30
2021-02-19 13:00:00 20 6 Este 18 Este 0 -- -- 27
2021-02-19 12:00:00 20.1 5 Este 15 Este 0 -- -- 23
2021-02-19 11:00:00 18.5 5 Este 12 Sudeste 0 -- -- 24
2021-02-19 10:00:00 16.2 4 Este 9 Este 0 -- -- 21
2021-02-19 09:00:00 12.3 3 Oeste 9 Oeste 0 -- -- 30
2021-02-19 08:00:00 10 8 Sudoeste 10 Oeste 0 -- -- 33
2021-02-19 07:00:00 10.1 5 Sudoeste 7 Sudoeste 0 -- -- 31
2021-02-19 06:00:00 11 5 Sur 7 Sudoeste 0 -- -- 27
2021-02-19 05:00:00 11.5 3 Sur 8 Sudoeste 0 -- -- 27
2021-02-19 04:00:00 12.2 6 Sudoeste 9 Sudoeste 0 -- -- 27
2021-02-19 03:00:00 11.1 8 Sudoeste 10 Sudoeste 0 -- -- 22
2021-02-19 02:00:00 12.6 4 Sur 12 Sur 0 -- -- 21
2021-02-19 01:00:00 12.7 7 Sudoeste 10 Sudoeste 0 -- -- 18
2021-02-19 00:00:00 12.5 4 Sudoeste 10 Sur 0 -- -- 23
2021-02-18 23:00:00 13.2 6 Sudoeste 8 Sur 0 -- -- 26
2021-02-18 22:00:00 11.9 2 Sudoeste 8 Noroeste 0 -- -- 56
2021-02-18 21:00:00 11.4 5 Oeste 7 Oeste 0 -- -- 60
2021-02-18 20:00:00 12 2 Norte 5 Noroeste 0 -- -- 62
2021-02-18 19:00:00 13.6 2 Nordeste 3 Oeste 0 -- -- 59
2021-02-18 18:00:00 15.2 3 Sudeste 8 Sudeste 0 -- -- 52
2021-02-18 17:00:00 17.4 4 Este 12 Este 0 -- -- 46
2021-02-18 16:00:00 18.1 5 Este 12 Este 0 -- -- 43
2021-02-18 15:00:00 19.1 5 Este 15 Sudeste 0 -- -- 41
2021-02-18 14:00:00 19.2 5 Este 17 Sudeste 0 -- -- 39
2021-02-18 13:00:00 18.9 5 Este 16 Este 0 -- -- 39
2021-02-18 12:00:00 18.6 4 Este 15 Este 0 -- -- 28
2021-02-18 11:00:00 17.5 5 Este 12 Este 0 -- -- 30
2021-02-18 10:00:00 15.3 2 Norte 8 Nordeste 0 -- -- 26
2021-02-18 09:00:00 12.3 0 Calma 6 Nordeste 0 -- -- 28
2021-02-18 08:00:00 10.4 3 Noroeste 7 Oeste 0 -- -- 28
2021-02-18 07:00:00 10 4 Oeste 8 Oeste 0 -- -- 29
2021-02-18 06:00:00 9.7 5 Oeste 8 Oeste 0 -- -- 34
2021-02-18 05:00:00 10.4 6 Sur 10 Sudoeste 0 -- -- 33
2021-02-18 04:00:00 9.7 6 Sudoeste 10 Sudoeste 0 -- -- 34
2021-02-18 03:00:00 10.5 5 Sudoeste 12 Este 0 -- -- 31
2021-02-18 02:00:00 10.2 3 Norte 10 Nordeste 0 -- -- 31
2021-02-18 01:00:00 10.3 5 Noroeste 10 Noroeste 0 -- -- 31
2021-02-18 00:00:00 9.6 6 Noroeste 12 Este 0 -- -- 33
2021-02-17 23:00:00 9.9 5 Sudoeste 12 Sudoeste 0 -- -- 39
2021-02-17 22:00:00 9.7 4 Sur 9 Noroeste 0 -- -- 54
2021-02-17 21:00:00 9.8 4 Sudoeste 6 Sudoeste 0 -- -- 55
2021-02-17 20:00:00 10.5 3 Sudoeste 5 Noroeste 0 -- -- 64
2021-02-17 19:00:00 12.2 2 Este 5 Sudeste 0 -- -- 59
2021-02-17 18:00:00 14.2 4 Sudeste 7 Sudeste 0 -- -- 52
2021-02-17 17:00:00 15.8 3 Este 10 Este 0 -- -- 46
2021-02-17 16:00:00 16.4 5 Este 16 Este 0 -- -- 41
2021-02-17 15:00:00 17 5 Este 15 Este 0 -- -- 36
2021-02-17 14:00:00 16.7 4 Este 14 Sudeste 0 -- -- 38
2021-02-17 13:00:00 15.7 5 Sudeste 19 Este 0 -- -- 36
2021-02-17 12:00:00 16 6 Este 20 Sudeste 0 -- -- 38
2021-02-17 11:00:00 15 8 Este 26 Este 0 -- -- 41
2021-02-17 10:00:00 13 9 Este 23 Este 0 -- -- 45
2021-02-17 09:00:00 10.3 7 Este 15 Este 0 -- -- 46
2021-02-17 08:00:00 8.3 4 Este 20 Este 0 -- -- 47
2021-02-17 07:00:00 9.1 7 Nordeste 19 Este 0 -- -- 42
2021-02-17 06:00:00 10 10 Este 28 Nordeste 0 -- -- 37
2021-02-17 05:00:00 10.5 10 Este 32 Este 0 -- -- 41
2021-02-17 04:00:00 10.6 10 Nordeste 32 Este 0 -- -- 46
2021-02-17 03:00:00 11.2 12 Este 41 Este 0 -- -- 46
2021-02-17 02:00:00 12 15 Este 36 Este 0 -- -- 41
2021-02-17 01:00:00 12.4 16 Este 48 Nordeste 0 -- -- 35
2021-02-17 00:00:00 12.8 16 Este 44 Este 0 -- -- 30
2021-02-16 23:00:00 13.2 15 Nordeste 37 Este 0 -- -- 25
2021-02-16 22:00:00 13.4 17 Este 37 Este 0 -- -- 22
2021-02-16 21:00:00 13.3 13 Este 36 Este 0 -- -- 24
2021-02-16 20:00:00 12.9 12 Este 28 Este 0 -- -- 30
2021-02-16 19:00:00 12.7 10 Este 33 Este 0 -- -- 33
2021-02-16 18:00:00 13.2 8 Este 28 Este 0 -- -- 34
2021-02-16 17:00:00 15.3 5 Este 18 Este 0 -- -- 34
2021-02-16 16:00:00 16 5 Este 21 Sudeste 0 -- -- 38
2021-02-16 15:00:00 16.7 7 Este 24 Este 0 -- -- 37
2021-02-16 14:00:00 16.8 8 Este 28 Este 0 -- -- 38
2021-02-16 13:00:00 16.5 8 Este 29 Nordeste 0 -- -- 33
2021-02-16 12:00:00 16.5 7 Este 29 Nordeste 0 -- -- 42
2021-02-16 11:00:00 15.3 9 Este 26 Este 0 -- -- 43
2021-02-16 10:00:00 13.8 9 Este 22 Este 0 -- -- 45
2021-02-16 09:00:00 11.7 8 Este 17 Este 0 -- -- 52
2021-02-16 08:00:00 10.7 9 Este 21 Este 0 -- -- 49
2021-02-16 07:00:00 11 7 Este 23 Este 0 -- -- 46
2021-02-16 06:00:00 11.4 6 Este 23 Este 0 -- -- 43
2021-02-16 05:00:00 12.1 7 Este 23 Nordeste 0 -- -- 38
2021-02-16 04:00:00 12.6 8 Este 23 Nordeste 0 -- -- 35
2021-02-16 03:00:00 13.1 9 Este 34 Este 0 -- -- 36
2021-02-16 02:00:00 13.6 8 Este 30 Este 0 -- -- 40
2021-02-16 01:00:00 14.4 12 Este 32 Este 0 -- -- 38
2021-02-16 00:00:00 14.9 10 Este 26 Este 0 -- -- 32
2021-02-15 23:00:00 15.4 7 Este 34 Nordeste 0 -- -- 29
2021-02-15 22:00:00 16.2 11 Este 27 Este 0 -- -- 26
2021-02-15 21:00:00 16.1 5 Nordeste 23 Este 0 -- -- 25
2021-02-15 20:00:00 15.8 6 Este 21 Este 0 -- -- 26
2021-02-15 19:00:00 16 6 Nordeste 18 Este 0 -- -- 25
2021-02-15 18:00:00 17.9 2 Nordeste 10 Este 0 -- -- 24
2021-02-15 17:00:00 19.2 5 Sudeste 13 Sudeste 0 -- -- 25
2021-02-15 16:00:00 20.3 5 Sudeste 18 Sur 0 -- -- 26
2021-02-15 15:00:00 20.6 4 Sudeste 17 Sur 0 -- -- 25
2021-02-15 14:00:00 20.7 7 Este 23 Este 0 -- -- 26
2021-02-15 13:00:00 20.4 5 Sudeste 19 Sudeste 0 -- -- 28
2021-02-15 12:00:00 20.3 7 Este 19 Sudeste 0 -- -- 29
2021-02-15 11:00:00 19.6 6 Este 24 Sudeste 0 -- -- 28
2021-02-15 10:00:00 18.4 8 Este 22 Este 0 -- -- 31
2021-02-15 09:00:00 15.9 8 Este 25 Este 0 -- -- 34
2021-02-15 08:00:00 13.9 4 Este 15 Este 0 -- -- 33
2021-02-15 07:00:00 14.6 4 Oeste 9 Nordeste 0 -- -- 29
2021-02-15 06:00:00 14.3 5 Oeste 14 Este 0 -- -- 32
2021-02-15 05:00:00 14.5 4 Este 15 Este 0 -- -- 31
2021-02-15 04:00:00 15.5 5 Sudeste 18 Este 0 -- -- 29
2021-02-15 03:00:00 16.5 3 Sudeste 23 Este 0 -- -- 21
2021-02-15 02:00:00 16.7 4 Este 15 Sudeste 0 -- -- 19
2021-02-15 01:00:00 17.2 3 Sur 14 Sudeste 0 -- -- 20
2021-02-15 00:00:00 17.3 8 Sudeste 15 Sudeste 0 -- -- 19
2021-02-14 23:00:00 16.6 8 Sur 13 Sudoeste 0 -- -- 21
2021-02-14 22:00:00 16.1 7 Sudoeste 9 Sudoeste 0 -- -- 24
2021-02-14 21:00:00 15.6 5 Sudoeste 8 Sudoeste 0 -- -- 27
2021-02-14 20:00:00 16.5 3 Sur 8 Sudoeste 0 -- -- 24
2021-02-14 19:00:00 16.3 5 Oeste 6 Oeste 0 -- -- 26
2021-02-14 18:00:00 19.6 3 Sur 13 Este 0 -- -- 23
2021-02-14 17:00:00 22.2 4 Sudeste 14 Este 0 -- -- 17
2021-02-14 16:00:00 22.8 5 Sudeste 14 Este 0 -- -- 19
2021-02-14 15:00:00 23 5 Este 15 Sudeste 0 -- -- 17
2021-02-14 14:00:00 23.2 5 Este 17 Este 0 -- -- 26
2021-02-14 13:00:00 23 4 Este 16 Este 0 -- -- 40
2021-02-14 12:00:00 23.2 5 Este 13 Este 0 -- -- 46
2021-02-14 11:00:00 22.2 3 Este 11 Este 0 -- -- 27
2021-02-14 10:00:00 20.4 4 Este 16 Este 0 -- -- 26
2021-02-14 09:00:00 17.5 3 Sur 10 Sur 0 -- -- 29
2021-02-14 08:00:00 15.6 4 Sur 9 Sudoeste 0 -- -- 31
2021-02-14 07:00:00 17 5 Sudoeste 12 Sudoeste 0 -- -- 25
2021-02-14 06:00:00 14.1 5 Sudoeste 9 Oeste 0 -- -- 32
2021-02-14 05:00:00 14.4 3 Este 12 Sur 0 -- -- 33
2021-02-14 04:00:00 13.7 4 Oeste 9 Sur 0 -- -- 34
2021-02-14 03:00:00 14.1 4 Sudoeste 8 Noroeste 0 -- -- 33
2021-02-14 02:00:00 15.4 3 Este 8 Sudeste 0 -- -- 31
2021-02-14 01:00:00 16.2 4 Sur 9 Sur 0 -- -- 29
2021-02-14 00:00:00 15.3 2 Noroeste 11 Sudeste 0 -- -- 32
2021-02-13 23:00:00 17.1 6 Sudeste 15 Sudeste 0 -- -- 26
2021-02-13 22:00:00 16.7 3 Sudoeste 13 Sur 0 -- -- 29
2021-02-13 21:00:00 15.6 3 Sudeste 8 Noroeste 0 -- -- 34
2021-02-13 20:00:00 15.8 5 Sur 10 Oeste 0 -- -- 49
2021-02-13 19:00:00 15.6 2 Sudoeste 7 Sudoeste 0 -- -- 46
2021-02-13 18:00:00 18.6 0 Calma 6 Sudeste 0 -- -- 56
2021-02-13 17:00:00 20.2 4 Este 12 Este 0 -- -- 54
2021-02-13 16:00:00 20.8 3 Este 17 Este 0 -- -- 50
2021-02-13 15:00:00 21.8 3 Este 17 Este 0 -- -- 43
2021-02-13 14:00:00 21.2 5 Este 18 Este 0 -- -- 47
2021-02-13 13:00:00 21 6 Este 18 Este 0 -- -- 48
2021-02-13 12:00:00 20.7 5 Este 12 Este 0 -- -- 46
2021-02-13 07:00:00 -- -- -- -- -- -- -- -- --
2021-02-13 06:00:00 11.9 6 Oeste 12 Oeste 0 -- -- 47
2021-02-13 05:00:00 12.1 5 Sudoeste 10 Sudoeste 0 -- -- 47
2021-02-13 04:00:00 12.6 4 Sur 14 Oeste 0 -- -- 49
2021-02-13 03:00:00 12.6 4 Sudeste 14 Sudoeste 0 -- -- 50
2021-02-13 02:00:00 12.2 6 Sudoeste 12 Sur 0 -- -- 54
2021-02-13 01:00:00 10.1 5 Sudoeste 12 Oeste 0 -- -- 75
2021-02-13 00:00:00 9.4 3 Sudoeste 10 Sudoeste 0 -- -- 89
2021-02-12 23:00:00 10.2 4 Sudoeste 8 Sur 0 -- -- 93
2021-02-12 22:00:00 10.2 6 Sudoeste 10 Sudoeste 0 -- -- 94
2021-02-12 21:00:00 11.7 2 Sudoeste 7 Oeste 0 -- -- 92
2021-02-12 20:00:00 12 0 Calma 6 Este 0 -- -- 87
2021-02-12 19:00:00 13.2 0 Calma 7 Sur 0 -- -- 83
2021-02-12 18:00:00 15.6 2 Sudeste 7 Este 0 -- -- 73
2021-02-12 17:00:00 17.3 4 Sudeste 10 Sudeste 0 -- -- 66
2021-02-12 16:00:00 18.3 4 Sudeste 17 Sudeste 0 -- -- 63
2021-02-12 15:00:00 18.9 5 Sudeste 18 Sur 0 -- -- 62
2021-02-12 14:00:00 18.8 7 Sudeste 21 Sudeste 0 -- -- 60
2021-02-12 13:00:00 18.6 5 Este 13 Sur 0 -- -- 59
2021-02-12 12:00:00 17.9 3 Este 14 Este 0 -- -- 61
2021-02-12 11:00:00 16.3 5 Este 13 Este 0 -- -- 64
2021-02-12 10:00:00 13.6 4 Este 8 Este 0 -- -- 72
2021-02-12 09:00:00 10.5 3 Nordeste 9 Este 0 -- -- 79
2021-02-12 08:00:00 7.7 3 Norte 9 Oeste 0 -- -- 88
2021-02-12 07:00:00 7.7 5 Noroeste 8 Noroeste 0 -- -- 85
2021-02-12 06:00:00 8.5 5 Sudoeste 9 Oeste 0 -- -- 81
2021-02-12 05:00:00 8.2 7 Noroeste 10 Noroeste 0 -- -- 87
2021-02-12 04:00:00 8.4 3 Noroeste 9 Noroeste 0 -- -- 87
2021-02-12 03:00:00 8.6 4 Oeste 8 Oeste 0 -- -- 88
2021-02-12 02:00:00 8.7 0 Calma 10 Noroeste 0 -- -- 87
2021-02-12 01:00:00 8.6 5 Oeste 10 Noroeste 0 -- -- 89
2021-02-12 00:00:00 8.8 6 Oeste 8 Noroeste 0 -- -- 93
2021-02-11 23:00:00 9.5 0 Calma 7 Oeste 0 -- -- 94
2021-02-11 22:00:00 10.2 3 Sudoeste 5 Sudoeste 0 -- -- 91
2021-02-11 21:00:00 11.3 2 Este 6 Este 0 -- -- 89
2021-02-11 20:00:00 11.7 0 Calma 5 Sur 0 -- -- 92
2021-02-11 19:00:00 12.2 2 Sur 5 Este 0 -- -- 90
2021-02-11 18:00:00 13.3 3 Este 8 Este 0 -- -- 85
2021-02-11 17:00:00 13.2 3 Nordeste 9 Sudeste 0 -- -- 85
2021-02-11 16:00:00 12.8 3 Este 10 Sudeste 0 -- -- 87
2021-02-11 15:00:00 13.4 4 Sudeste 11 Este 0 -- -- 84
2021-02-11 14:00:00 15.6 3 Este 14 Sudeste 0 -- -- 74
2021-02-11 13:00:00 17.2 3 Sudeste 17 Sudeste 0 -- -- 65
2021-02-11 12:00:00 16.8 4 Este 17 Este 0 -- -- 61
2021-02-11 11:00:00 15.6 5 Este 13 Este 0 -- -- 65
2021-02-11 10:00:00 13.3 4 Este 12 Nordeste 0 -- -- 73
2021-02-11 09:00:00 9.6 2 Nordeste 9 Noroeste 0 -- -- 86
2021-02-11 08:00:00 7.2 8 Noroeste 10 Noroeste 0 -- -- 81
2021-02-11 07:00:00 7.6 3 Noroeste 8 Noroeste 0 -- -- 86
2021-02-11 06:00:00 7.4 5 Oeste 6 Oeste 0 -- -- 90
2021-02-11 05:00:00 7.5 4 Oeste 7 Noroeste 0 -- -- 89
2021-02-11 04:00:00 7.8 6 Noroeste 8 Noroeste 0 -- -- 89
2021-02-11 03:00:00 7.9 3 Oeste 5 Noroeste 0 -- -- 85
2021-02-11 02:00:00 8.3 3 Oeste 6 Noroeste 0 -- -- 92
2021-02-11 01:00:00 8.8 3 Oeste 8 Noroeste 0 -- -- 92
2021-02-11 00:00:00 9.1 5 Noroeste 8 Sudoeste 0 -- -- 92
2021-02-10 23:00:00 10.3 5 Sudoeste 9 Sur 0 -- -- 88
2021-02-10 22:00:00 11.3 4 Sur 6 Sudoeste 0 -- -- 85
2021-02-10 21:00:00 11.7 2 Sur 5 Sur 0 -- -- 92
2021-02-10 20:00:00 12 0 Calma 5 Sudeste 0 -- -- 94
2021-02-10 19:00:00 12.4 0 Calma 6 Este 0 -- -- 93
2021-02-10 18:00:00 12.7 2 Este 6 Sudeste 0 -- -- 92
2021-02-10 17:00:00 13.1 3 Este 8 Este 0 -- -- 89
2021-02-10 16:00:00 14.1 3 Este 9 Sudeste 0 -- -- 84
2021-02-10 15:00:00 14.6 3 Este 13 Sudeste 0 -- -- 81
2021-02-10 14:00:00 16.8 5 Este 18 Este 0 -- -- 74
2021-02-10 13:00:00 18 5 Este 17 Este 0 -- -- 66
2021-02-10 12:00:00 17.6 3 Este 13 Nordeste 0 -- -- 64
2021-02-10 11:00:00 16 4 Este 12 Este 0 -- -- 63
2021-02-10 10:00:00 14.1 4 Este 9 Este 0 -- -- 69
2021-02-10 09:00:00 10.9 3 Nordeste 5 Este 0 -- -- 79
2021-02-10 08:00:00 8.6 3 Oeste 6 Sudoeste 0 -- -- 64
2021-02-10 07:00:00 8.4 5 Noroeste 8 Noroeste 0 -- -- 61
2021-02-10 06:00:00 8.8 0 Calma 8 Oeste 0 -- -- 71
2021-02-10 05:00:00 7.9 5 Oeste 7 Oeste 0 -- -- 84
2021-02-10 04:00:00 8.1 4 Oeste 6 Oeste 0 -- -- 82
2021-02-10 03:00:00 8 4 Oeste 9 Noroeste 0 -- -- 88
2021-02-10 02:00:00 8.2 2 Sudoeste 5 Sudoeste 0 -- -- 89
2021-02-10 01:00:00 8.5 4 Oeste 6 Noroeste 0 -- -- 90
2021-02-10 00:00:00 8.8 3 Sudoeste 10 Oeste 0 -- -- 89
2021-02-09 23:00:00 9.9 3 Oeste 8 Sudoeste 0 -- -- 89
2021-02-09 22:00:00 10.8 3 Sur 7 Sudoeste 0 -- -- 89
2021-02-09 21:00:00 11 2 Norte 6 Sur 0 -- -- 90
2021-02-09 20:00:00 11.5 3 Sudeste 5 Sudeste 0 -- -- 89
2021-02-09 19:00:00 12.4 3 Este 8 Sudeste 0 -- -- 85
2021-02-09 18:00:00 13.7 3 Sudeste 11 Sudeste 0 -- -- 80
2021-02-09 17:00:00 14.9 4 Este 14 Este 0 -- -- 75
2021-02-09 16:00:00 16.3 4 Sudeste 18 Este 0 -- -- 69
2021-02-09 15:00:00 17.1 5 Este 15 Este 0 -- -- 67
2021-02-09 14:00:00 16.9 5 Este 15 Este 0 -- -- 67
2021-02-09 13:00:00 16.4 6 Este 17 Este 0 -- -- 67
2021-02-09 12:00:00 15.7 6 Este 14 Este 0 -- -- 69
2021-02-09 11:00:00 15 6 Este 13 Este 0 -- -- 70
2021-02-09 10:00:00 11.9 4 Este 9 Este 0 -- -- 81
2021-02-09 09:00:00 8.5 2 Oeste 8 Oeste 0 -- -- 94
2021-02-09 08:00:00 7.8 2 Sudoeste 7 Sudoeste 0 -- -- 96
2021-02-09 07:00:00 7.6 5 Sudoeste 8 Sudoeste 0 -- -- 94
2021-02-09 06:00:00 8.5 2 Sudeste 8 Sudeste 0 -- -- 87
2021-02-09 05:00:00 9.2 2 Sur 8 Oeste 0 -- -- 63
2021-02-09 04:00:00 7.9 0 Calma 8 Oeste 0 -- -- 92
2021-02-09 03:00:00 7.6 2 Noroeste 9 Noroeste 0 -- -- 92
2021-02-09 02:00:00 7.6 4 Oeste 10 Noroeste 0 -- -- 94
2021-02-09 01:00:00 7.9 5 Oeste 14 Noroeste 0 -- -- 94
2021-02-09 00:00:00 9 4 Oeste 10 Noroeste 0 -- -- 95
2021-02-08 23:00:00 9.3 4 Sudoeste 8 Noroeste 0 -- -- 93
2021-02-08 22:00:00 9.9 4 Oeste 7 Oeste 0 -- -- 90
2021-02-08 21:00:00 10.7 3 Noroeste 5 Norte 0 -- -- 90
2021-02-08 20:00:00 11.1 2 Este 5 Sudeste 0 -- -- 90
2021-02-08 19:00:00 11.7 3 Este 6 Este 0 -- -- 89
2021-02-08 18:00:00 12.8 3 Este 10 Este 0 -- -- 84
2021-02-08 17:00:00 15 3 Este 10 Sudeste 0 -- -- 75
2021-02-08 16:00:00 15.9 4 Este 12 Sudeste 0 -- -- 73
2021-02-08 15:00:00 15.7 4 Este 17 Sur 0 -- -- 70
2021-02-08 14:00:00 16.1 8 Sur 17 Sudeste 0 -- -- 68
2021-02-08 13:00:00 16.8 6 Este 18 Este 0 -- -- 66
2021-02-08 12:00:00 15.9 5 Este 15 Este 0 -- -- 70
2021-02-08 11:00:00 14.7 4 Este 14 Este 0 -- -- 72
2021-02-08 10:00:00 11.8 5 Este 9 Este 0 -- -- 86
2021-02-08 09:00:00 8.4 2 Norte 5 Oeste 0 -- -- 94
2021-02-08 08:00:00 6.8 3 Oeste 5 Oeste 0 -- -- 94
2021-02-08 07:00:00 7.1 2 Sudeste 6 Sudoeste 0 -- -- 90
2021-02-08 06:00:00 7.2 2 Norte 6 Noroeste 0 -- -- 87
2021-02-08 05:00:00 7.4 3 Noroeste 6 Oeste 0 -- -- 86
2021-02-08 04:00:00 7.8 4 Oeste 5 Sudoeste 0 -- -- 88
2021-02-08 03:00:00 7.7 2 Nordeste 6 Noroeste 0 -- -- 89
2021-02-08 02:00:00 7.7 4 Oeste 6 Oeste 0 -- -- 91
2021-02-08 01:00:00 7.9 2 Nordeste 7 Noroeste 0 -- -- 90
2021-02-08 00:00:00 7.9 2 Norte 10 Noroeste 0 -- -- 89
2021-02-07 23:00:00 8.5 2 Este 10 Oeste 0 -- -- 96
2021-02-07 22:00:00 8.7 3 Noroeste 7 Noroeste 0 -- -- 92
2021-02-07 21:00:00 9.4 3 Oeste 8 Sudoeste 0 -- -- 93
2021-02-07 20:00:00 10.3 4 Sur 6 Sur 0 -- -- 91
2021-02-07 19:00:00 10.9 2 Este 6 Este 0 -- -- 88
2021-02-07 18:00:00 11.9 2 Este 10 Sudeste 0 -- -- 83
2021-02-07 17:00:00 12.3 3 Este 12 Sur 0 -- -- 81
2021-02-07 16:00:00 12.4 0 Calma 12 Sur 0 -- -- 82
2021-02-07 15:00:00 12 6 Sur 18 Sur 0 -- -- 80
2021-02-07 14:00:00 13.1 7 Sur 17 Sur 0 -- -- 72
2021-02-07 13:00:00 14.5 5 Sur 13 Sur 0 -- -- 66
2021-02-07 12:00:00 15.9 4 Este 17 Sudeste 0 -- -- 61
2021-02-07 11:00:00 13.7 5 Este 14 Este 0 -- -- 71
2021-02-07 10:00:00 11.7 4 Nordeste 9 Este 0 -- -- 72
2021-02-07 09:00:00 8.6 3 Este 7 Este 0 -- -- 84
2021-02-07 08:00:00 7.1 0 Calma 8 Oeste 0 -- -- 84
2021-02-07 07:00:00 6.7 5 Oeste 10 Oeste 0 -- -- 84
2021-02-07 06:00:00 7.1 5 Oeste 9 Noroeste 0 -- -- 81
2021-02-07 05:00:00 7.4 5 Oeste 10 Noroeste 0 -- -- 79
2021-02-07 04:00:00 6.9 7 Oeste 9 Oeste 0 -- -- 84
2021-02-07 03:00:00 8.1 3 Sudoeste 14 Noroeste 0 -- -- 77
2021-02-07 02:00:00 7.9 6 Sudoeste 11 Sudoeste 0 -- -- 80
2021-02-07 01:00:00 7.6 5 Oeste 8 Noroeste 0 -- -- 83
2021-02-07 00:00:00 8.5 3 Nordeste 13 Sudoeste 0 -- -- 84
2021-02-06 23:00:00 9.3 4 Este 17 Oeste 0 -- -- 77
2021-02-06 22:00:00 9.7 6 Sur 18 Oeste 0 -- -- 72
2021-02-06 21:00:00 9.6 4 Sur 18 Sudoeste 0 -- -- 74
2021-02-06 20:00:00 9.8 8 Noroeste 28 Noroeste 0 -- -- 74
2021-02-06 19:00:00 9.6 4 Sur 31 Oeste 0 -- -- 78
2021-02-06 18:00:00 10.1 5 Nordeste 41 Norte 0 -- -- 72
2021-02-06 17:00:00 11.3 7 Nordeste 23 Este 0 -- -- 76
2021-02-06 16:00:00 12.2 3 Norte 26 Norte 0.2 -- -- 72
2021-02-06 15:00:00 12.2 15 Noroeste 31 Noroeste 0 -- -- 68
2021-02-06 14:00:00 12.1 7 Noroeste 46 Noroeste 0 -- -- 75
2021-02-06 13:00:00 11.5 12 Noroeste 39 Noroeste 0 -- -- 75
2021-02-06 12:00:00 11 18 Noroeste 46 Noroeste 0 -- -- 71
2021-02-06 11:00:00 9.8 5 Sur 40 Noroeste 0 -- -- 76
2021-02-06 10:00:00 9.7 14 Norte 62 Noroeste 0 -- -- 69
2021-02-06 09:00:00 8 26 Noroeste 54 Noroeste 0.2 -- -- 71
2021-02-06 08:00:00 7.7 19 Noroeste 57 Noroeste 0 -- -- 72
2021-02-06 07:00:00 7.2 25 Noroeste 53 Noroeste 0.6 -- -- 76
2021-02-06 06:00:00 7.5 19 Noroeste 48 Noroeste 0 -- -- 73
2021-02-06 05:00:00 7.6 25 Noroeste 59 Noroeste 0 -- -- 64
2021-02-06 04:00:00 7.2 23 Noroeste 54 Noroeste 0.2 -- -- 70
2021-02-06 03:00:00 7.1 14 Noroeste 75 Noroeste 0 -- -- 75
2021-02-06 02:00:00 6.5 14 Noroeste 53 Noroeste 0.8 -- -- 80
2021-02-06 01:00:00 6.7 11 Noroeste 46 Noroeste 0.4 -- -- 79
2021-02-06 00:00:00 7.1 20 Noroeste 37 Noroeste 0 -- -- 78
2021-02-05 23:00:00 7 10 Norte 24 Norte 0.2 -- -- 77
2021-02-05 22:00:00 7.5 6 Sur 35 Noroeste 0 -- -- 75
2021-02-05 21:00:00 7.1 13 Noroeste 41 Noroeste 0 -- -- 75
2021-02-05 20:00:00 7.2 14 Noroeste 44 Noroeste 0 -- -- 72
2021-02-05 19:00:00 6.7 16 Noroeste 36 Noroeste 1.2 -- -- 80
2021-02-05 18:00:00 8.8 7 Oeste 20 Este 0.4 -- -- 72
2021-02-05 17:00:00 10.8 4 Este 18 Nordeste 0 -- -- 72
2021-02-05 16:00:00 10.3 9 Norte 32 Oeste 0 -- -- 65
2021-02-05 15:00:00 9.7 16 Noroeste 38 Norte 0 -- -- 73
2021-02-05 14:00:00 10.3 19 Noroeste 48 Noroeste 0 -- -- 70
2021-02-05 13:00:00 8.9 20 Noroeste 44 Noroeste 0.4 -- -- 72
2021-02-05 12:00:00 8.8 7 Noroeste 22 Noroeste 0.8 -- -- 80
2021-02-05 11:00:00 9.3 8 Noroeste 22 Oeste 0 -- -- 78
2021-02-05 10:00:00 9.6 9 Noroeste 33 Oeste 0 -- -- 68
2021-02-05 09:00:00 7.4 10 Noroeste 41 Oeste 0 -- -- 73
2021-02-05 08:00:00 6.1 11 Noroeste 31 Noroeste 0.2 -- -- 82
2021-02-05 07:00:00 6 8 Noroeste 17 Oeste 1 -- -- 88
2021-02-05 06:00:00 6.8 3 Este 19 Oeste 0 -- -- 77
2021-02-05 05:00:00 6.6 9 Oeste 23 Noroeste 0 -- -- 78
2021-02-05 04:00:00 6.3 10 Oeste 22 Noroeste 0 -- -- 77
2021-02-05 03:00:00 6 5 Oeste 25 Noroeste 0.4 -- -- 82
2021-02-05 02:00:00 7.2 9 Oeste 32 Sudoeste 0.2 -- -- 80
2021-02-05 01:00:00 7.2 12 Oeste 26 Oeste 0 -- -- 75
2021-02-05 00:00:00 7.4 12 Oeste 24 Oeste 0 -- -- 78
2021-02-04 23:00:00 7.4 11 Oeste 26 Oeste 0.4 -- -- 78
2021-02-04 22:00:00 7.5 4 Noroeste 18 Oeste 0.8 -- -- 86
2021-02-04 21:00:00 8.7 9 Noroeste 24 Oeste 0 -- -- 76
2021-02-04 20:00:00 8.9 14 Oeste 33 Oeste 0 -- -- 72
2021-02-04 19:00:00 9.3 13 Oeste 36 Oeste 0 -- -- 73
2021-02-04 18:00:00 10.5 19 Noroeste 34 Noroeste 0 -- -- 62
2021-02-04 17:00:00 11.5 13 Noroeste 27 Noroeste 0 -- -- 69
2021-02-04 16:00:00 12.1 4 Sur 20 Sur 0 -- -- 72
2021-02-04 15:00:00 12.7 5 Sudeste 23 Sur 0 -- -- 66
2021-02-04 14:00:00 13.1 4 Este 19 Sudoeste 0 -- -- 74
2021-02-04 13:00:00 11.4 6 Oeste 19 Oeste 0.6 -- -- 89
2021-02-04 12:00:00 11.3 4 Este 17 Sudeste 1.6 -- -- 95
2021-02-04 11:00:00 11.5 3 Este 11 Este 0 -- -- 87
2021-02-04 10:00:00 13 4 Este 12 Este 0 -- -- 75
2021-02-04 09:00:00 10.6 3 Este 9 Noroeste 0 -- -- 82
2021-02-04 08:00:00 8.2 6 Noroeste 8 Noroeste 0 -- -- 90
2021-02-04 07:00:00 8.1 4 Noroeste 9 Oeste 0 -- -- 88
2021-02-04 06:00:00 8.6 8 Oeste 10 Oeste 0 -- -- 87
2021-02-04 05:00:00 9.6 3 Norte 9 Oeste 0 -- -- 86
2021-02-04 04:00:00 9.7 5 Noroeste 11 Noroeste 0 -- -- 87
2021-02-04 03:00:00 9.7 5 Oeste 8 Noroeste 0 -- -- 88
2021-02-04 02:00:00 9.8 2 Noroeste 9 Sur 0 -- -- 91
2021-02-04 01:00:00 9.3 5 Oeste 10 Sudeste 0 -- -- 93
2021-02-04 00:00:00 10.1 3 Nordeste 23 Noroeste 0 -- -- 87